Location: Falniów
(50.3639°N, 19.9642°E)
Time: 13:17:39
(UTC+00:00)

Cosmos 2082 Rocket - Pass Details

Date: 26 April 2026
Orbit: 831 x 853 km, 71.0° (Epoch: 19 May)

Event Time Altitude Azimuth Distance (km) Brightness Sun altitude
Exits shadow 23:45:28 37° 260° (W) 1,308 2.9 -24.2°
Maximum altitude 23:47:15 49° 307° (NW) 1,095 2.8 -24.1°
Drops below altitude 10° 23:52:48 10° 22° (NNE) 2,493 5.7 -23.8°
Sets 23:55:21 0° 28° (NNE) 3,431 6.8 -23.7°
